Location: Croydon
(51.3762°N, 0.0982°W)
Time: 07:05:36
(UTC+00:00)

A-11 Canister half - Visible Passes

Search period start: 19 November 2019 00:00
Search period end: 29 November 2019 00:00
Orbit: 1514 x 1686 km, 47.2° (Epoch: 18 November)

Date Brightness Start Highest point End Pass type
(mag) Time Alt. Az. Time Alt. Az. Time Alt. Az.
19 Nov 9.5 18:03:52 10° SW 18:13:25 50° SSE 18:18:44 28° E visible
19 Nov 9.1 20:07:42 10° WSW 20:16:56 68° SSW 20:16:56 68° SSW visible
19 Nov 10.8 22:12:27 10° W 22:15:07 21° W 22:15:07 21° W visible
20 Nov 9.6 17:41:04 10° SW 17:50:31 48° SSE 17:57:03 22° E visible
20 Nov 9.0 19:44:47 10° WSW 19:54:52 70° S 19:55:15 70° SSE visible
20 Nov 10.5 21:49:30 10° W 21:53:27 27° W 21:53:27 27° W visible
21 Nov 9.6 17:18:16 10° SW 17:27:38 47° SSE 17:35:21 16° E visible
21 Nov 9.0 19:21:51 10° WSW 19:31:55 70° S 19:33:33 61° SE visible
21 Nov 10.2 21:26:34 10° W 21:31:45 34° W 21:31:45 34° W visible
22 Nov 9.7 16:55:28 10° SW 17:04:45 45° SSE 17:13:39 12° E visible
22 Nov 9.1 18:58:56 10° WSW 19:08:59 69° S 19:11:51 51° ESE visible
22 Nov 9.8 21:03:37 10° W 21:10:02 43° WSW 21:10:02 43° WSW visible
23 Nov 9.8 16:32:41 10° SSW 16:41:52 43° SSE 16:51:13 10° E visible
23 Nov 9.2 18:36:03 10° WSW 18:46:03 68° S 18:50:08 41° ESE visible
23 Nov 9.5 20:40:40 10° W 20:48:19 53° WSW 20:48:19 53° WSW visible
23 Nov 11.1 22:45:40 10° W 22:46:31 13° W 22:46:31 13° W visible
24 Nov 9.2 18:13:08 10° WSW 18:23:07 68° SSE 18:28:25 32° E visible
24 Nov 9.3 20:17:44 10° W 20:26:37 62° SW 20:26:37 62° SW visible
24 Nov 10.9 22:22:41 10° W 22:24:48 17° W 22:24:48 17° W visible
25 Nov 9.3 17:50:14 10° WSW 18:00:11 67° SSE 18:06:43 25° E visible
25 Nov 9.1 19:54:48 10° W 20:04:50 67° SSW 20:04:55 67° S visible
25 Nov 10.7 21:59:43 10° W 22:03:07 22° W 22:03:07 22° W visible
26 Nov 9.3 17:27:20 10° WSW 17:37:15 66° SSE 17:45:02 19° E visible
26 Nov 9.1 19:31:51 10° W 19:41:54 68° S 19:43:14 63° SSE visible
26 Nov 10.4 21:36:45 10° W 21:41:26 28° W 21:41:26 28° W visible
27 Nov 9.4 17:04:27 10° WSW 17:14:19 64° SSE 17:23:23 14° E visible
27 Nov 9.2 19:08:55 10° W 19:18:58 69° S 19:21:34 53° SE visible
27 Nov 10.1 21:13:47 10° W 21:19:46 35° WSW 21:19:46 35° WSW visible
28 Nov 9.5 16:41:34 10° WSW 16:51:24 63° SSE 17:01:23 10° E visible
28 Nov 9.2 18:46:00 10° W 18:56:02 70° S 18:59:56 42° ESE visible
28 Nov 9.9 20:50:50 10° W 20:58:08 41° WSW 20:58:08 41° WSW visible
